This is the latest recevied weather packets stored in our database for station/object R1CBW-13. If no packets are shown the sender has not sent any weather packets the latest 10 day(s).
| Time | Temp. | Humidity | Pressure | Rain* | Wind** | Luminosity | Snow |
|---|---|---|---|---|---|---|---|
| 1778319752 | 11.11° C | 30% | 1028 hPa | 0 mm | - | - | - |
| 1778319692 | 11.67° C | 29% | 1028 hPa | 0 mm | - | - | - |
| 1778319632 | 11.11° C | 30% | 1028 hPa | 0 mm | - | - | - |
| 1778319572 | 11.67° C | 29% | 1027.9 hPa | 0 mm | - | - | - |
| 1778319512 | 11.67° C | 30% | 1027.9 hPa | 0 mm | - | - | - |
| 1778319392 | 11.67° C | 29% | 1027.8 hPa | 0 mm | - | - | - |
| 1778319332 | 11.11° C | 29% | 1027.9 hPa | 0 mm | - | - | - |
| 1778319272 | 11.11° C | 30% | 1028 hPa | 0 mm | - | - | - |
| 1778319212 | 11.67° C | 29% | 1028 hPa | 0 mm | - | - | - |
| 1778319152 | 11.67° C | 29% | 1028 hPa | 0 mm | - | - | - |
| 1778319092 | 12.22° C | 28% | 1028.1 hPa | 0 mm | - | - | - |
| 1778319032 | 12.22° C | 29% | 1028 hPa | 0 mm | - | - | - |
| 1778318972 | 11.67° C | 29% | 1028 hPa | 0 mm | - | - | - |
| 1778318912 | 11.67° C | 30% | 1028 hPa | 0 mm | - | - | - |
| 1778318852 | 11.67° C | 30% | 1028 hPa | 0 mm | - | - | - |
| 1778318792 | 11.11° C | 30% | 1028.1 hPa | 0 mm | - | - | - |
| 1778318732 | 11.67° C | 31% | 1028.2 hPa | 0 mm | - | - | - |
| 1778318672 | 11.11° C | 30% | 1028 hPa | 0 mm | - | - | - |
| 1778318612 | 11.11° C | 31% | 1028 hPa | 0 mm | - | - | - |
| 1778318492 | 11.67° C | 29% | 1028 hPa | 0 mm | - | - | - |
| 1778318432 | 11.67° C | 30% | 1028.1 hPa | 0 mm | - | - | - |
| 1778318371 | 12.22° C | 29% | 1028 hPa | 0 mm | - | - | - |
| 1778318312 | 12.22° C | 29% | 1028 hPa | 0 mm | - | - | - |
| 1778318252 | 11.11° C | 30% | 1027.9 hPa | 0 mm | - | - | - |
| 1778318192 | 11.11° C | 29% | 1027.9 hPa | 0 mm | - | - | - |
* Rain latest hour (hover to see other rain measurements)
** Current wind speed in m/s (hover to see current wind gust speed)